When you browse on this site, cookies collect data to enhance your experience and personalize the content and advertising you see.
Visit our Privacy Policy to learn more. By continuing to use the site, you agree to this use of cookies and data.
  • In Romania
  • List of Countries
  • For 7 days
  • Water Temperature
  • Weather Map
  • Weather Widgets
  • user-avatar
    Login

    Hourly Weather Nara

    Today, 25 January, Saturday

    Time Temperature Precipitation Wind Pressure Humidity
    00:00 +5°C° 0 mm 5 mps 739 mmHg 73%
    01:00 +4°C° 0 mm 4 mps 738 mmHg 72%
    02:00 +4°C° 0 mm 4 mps 738 mmHg 71%
    03:00 +3°C° 0 mm 4 mps 738 mmHg 72%
    04:00 +3°C° 0 mm 3 mps 738 mmHg 70%
    05:00 +3°C° 0 mm 3 mps 739 mmHg 69%
    06:00 +3°C° 0 mm 3 mps 739 mmHg 67%
    07:00 +3°C° 0 mm 3 mps 739 mmHg 65%
    08:00 +3°C° 0 mm 3 mps 739 mmHg 62%
    09:00 +4°C° 0 mm 3 mps 739 mmHg 59%
    10:00 +5°C° 0 mm 3 mps 739 mmHg 54%
    11:00 +7°C° 0 mm 3 mps 739 mmHg 49%
    12:00 +8°C° 0 mm 3 mps 739 mmHg 44%
    13:00 +8°C° 0 mm 3 mps 738 mmHg 44%
    14:00 +8°C° 0 mm 3 mps 738 mmHg 45%
    15:00 +9°C° 0 mm 2 mps 737 mmHg 42%
    16:00 +8°C° 0 mm 2 mps 737 mmHg 46%
    17:00 +7°C° 0 mm 2 mps 737 mmHg 49%
    18:00 +8°C° 0 mm 1 mps 738 mmHg 53%
    19:00 +7°C° 0 mm 2 mps 737 mmHg 56%
    20:00 +6°C° 0 mm 2 mps 737 mmHg 59%
    21:00 +6°C° 0 mm 2 mps 737 mmHg 62%
    22:00 +6°C° 0.2 mm 2 mps 737 mmHg 66%
    23:00 +6°C° 0.2 mm 2 mps 737 mmHg 70%

    Tomorrow, 26 January, Sunday

    Time Temperature Precipitation Wind Pressure Humidity
    00:00 +6°C° 0.2 mm 1 mps 737 mmHg 74%
    01:00 +6°C° 0.8 mm 1 mps 737 mmHg 76%
    02:00 +6°C° 0.8 mm 1 mps 736 mmHg 79%
    03:00 +5°C° 0.8 mm 0 mps 736 mmHg 81%
    04:00 +6°C° 0.4 mm 1 mps 736 mmHg 81%
    05:00 +6°C° 0.4 mm 1 mps 735 mmHg 81%
    06:00 +5°C° 0.4 mm 2 mps 735 mmHg 80%
    07:00 +5°C° 0.1 mm 2 mps 735 mmHg 80%
    08:00 +5°C° 0.1 mm 2 mps 735 mmHg 79%
    09:00 +6°C° 0.1 mm 1 mps 736 mmHg 79%
    10:00 +7°C° 0 mm 1 mps 736 mmHg 76%
    11:00 +7°C° 0 mm 2 mps 736 mmHg 74%
    12:00 +8°C° 0 mm 2 mps 736 mmHg 71%
    13:00 +8°C° 0 mm 2 mps 735 mmHg 68%
    14:00 +10°C° 0 mm 1 mps 735 mmHg 66%
    15:00 +10°C° 0 mm 1 mps 734 mmHg 64%
    16:00 +9°C° 0 mm 2 mps 735 mmHg 66%
    17:00 +8°C° 0 mm 2 mps 735 mmHg 68%
    18:00 +7°C° 0 mm 2 mps 735 mmHg 70%
    19:00 +7°C° 0 mm 2 mps 735 mmHg 69%
    20:00 +7°C° 0 mm 3 mps 735 mmHg 69%
    21:00 +7°C° 0 mm 3 mps 735 mmHg 68%
    22:00 +7°C° 0.1 mm 3 mps 735 mmHg 68%
    23:00 +7°C° 0.1 mm 3 mps 735 mmHg 68%

    Day after tomorrow, 27 January, Monday

    Time Temperature Precipitation Wind Pressure Humidity
    00:00 +6°C° 0.1 mm 2 mps 735 mmHg 68%
    01:00 +5°C° 0.1 mm 3 mps 734 mmHg 70%
    02:00 +5°C° 0.1 mm 3 mps 734 mmHg 71%
    03:00 +5°C° 0.1 mm 3 mps 733 mmHg 73%
    04:00 +5°C° 1 mm 4 mps 733 mmHg 78%
    05:00 +5°C° 1 mm 4 mps 733 mmHg 83%
    06:00 +5°C° 1 mm 4 mps 733 mmHg 88%
    07:00 +5°C° 1.5 mm 4 mps 733 mmHg 87%
    08:00 +5°C° 1.5 mm 5 mps 732 mmHg 86%
    09:00 +5°C° 1.5 mm 5 mps 732 mmHg 86%
    10:00 +4°C° 0.7 mm 6 mps 732 mmHg 85%
    11:00 +4°C° 0.7 mm 7 mps 731 mmHg 84%
    12:00 +4°C° 0.7 mm 7 mps 731 mmHg 84%
    13:00 +4°C° 0.8 mm 8 mps 730 mmHg 85%
    14:00 +4°C° 0.8 mm 8 mps 729 mmHg 86%
    15:00 +4°C° 0.8 mm 8 mps 729 mmHg 87%
    16:00 +4°C° 0.9 mm 8 mps 729 mmHg 85%
    17:00 +4°C° 0.9 mm 7 mps 728 mmHg 84%
    18:00 +4°C° 0.9 mm 7 mps 728 mmHg 83%
    19:00 +5°C° 0.2 mm 7 mps 728 mmHg 81%
    20:00 +5°C° 0.2 mm 6 mps 727 mmHg 80%
    21:00 +5°C° 0.2 mm 6 mps 727 mmHg 79%
    22:00 +6°C° 0.1 mm 5 mps 727 mmHg 79%
    23:00 +6°C° 0.1 mm 5 mps 727 mmHg 80%

    28 January, Tuesday

    Time Temperature Precipitation Wind Pressure Humidity
    00:00 +6°C° 0.1 mm 5 mps 727 mmHg 80%
    01:00 +6°C° 0 mm 5 mps 727 mmHg 80%
    02:00 +6°C° 0 mm 5 mps 727 mmHg 79%
    03:00 +5°C° 0 mm 6 mps 727 mmHg 79%
    04:00 +5°C° 0 mm 6 mps 727 mmHg 80%
    05:00 +4°C° 0 mm 6 mps 727 mmHg 80%
    06:00 +4°C° 0 mm 6 mps 727 mmHg 81%
    07:00 +6°C° 0 mm 5 mps 727 mmHg 79%
    08:00 +7°C° 0 mm 5 mps 727 mmHg 76%
    09:00 +8°C° 0 mm 5 mps 727 mmHg 74%
    10:00 +10°C° 0 mm 4 mps 727 mmHg 70%
    11:00 +12°C° 0 mm 3 mps 727 mmHg 65%
    12:00 +13°C° 0 mm 3 mps 727 mmHg 61%
    13:00 +13°C° 0 mm 3 mps 727 mmHg 61%
    14:00 +13°C° 0 mm 3 mps 726 mmHg 60%
    15:00 +14°C° 0 mm 3 mps 726 mmHg 60%
    16:00 +13°C° 0 mm 3 mps 726 mmHg 64%
    17:00 +11°C° 0 mm 3 mps 726 mmHg 69%
    18:00 +10°C° 0 mm 2 mps 726 mmHg 73%
    19:00 +10°C° 0 mm 3 mps 726 mmHg 75%
    20:00 +8°C° 0 mm 4 mps 726 mmHg 77%
    21:00 +8°C° 0 mm 4 mps 726 mmHg 79%
    22:00 +7°C° 0.3 mm 4 mps 725 mmHg 82%
    23:00 +7°C° 0.3 mm 4 mps 725 mmHg 84%

    29 January, Wednesday

    Time Temperature Precipitation Wind Pressure Humidity
    00:00 +7°C° 0.3 mm 4 mps 725 mmHg 86%
    01:00 +8°C° 0.2 mm 3 mps 725 mmHg 87%
    02:00 +8°C° 0.2 mm 3 mps 725 mmHg 88%
    03:00 +7°C° 0.2 mm 2 mps 724 mmHg 89%
    04:00 +7°C° 0.4 mm 2 mps 724 mmHg 89%
    05:00 +7°C° 0.4 mm 2 mps 724 mmHg 90%
    06:00 +8°C° 0.4 mm 1 mps 724 mmHg 91%
    07:00 +8°C° 0.3 mm 1 mps 725 mmHg 90%
    08:00 +9°C° 0.3 mm 1 mps 725 mmHg 90%
    09:00 +9°C° 0.3 mm 1 mps 725 mmHg 90%
    10:00 +9°C° 0.2 mm 1 mps 725 mmHg 90%
    11:00 +9°C° 0.2 mm 1 mps 724 mmHg 90%
    12:00 +9°C° 0.2 mm 1 mps 724 mmHg 90%
    13:00 +9°C° 0.2 mm 1 mps 724 mmHg 90%
    14:00 +9°C° 0.2 mm 1 mps 723 mmHg 90%
    15:00 +8°C° 0.2 mm 2 mps 723 mmHg 90%
    16:00 +9°C° 0.1 mm 1 mps 723 mmHg 90%
    17:00 +8°C° 0.1 mm 1 mps 723 mmHg 91%
    18:00 +8°C° 0.1 mm 1 mps 723 mmHg 92%
    19:00 +8°C° 0.1 mm 1 mps 723 mmHg 90%
    20:00 +7°C° 0.1 mm 2 mps 723 mmHg 89%
    21:00 +7°C° 0.1 mm 2 mps 723 mmHg 87%
    22:00 +7°C° 0 mm 3 mps 723 mmHg 87%
    23:00 +7°C° 0 mm 3 mps 723 mmHg 86%

    30 January, Thursday

    Time Temperature Precipitation Wind Pressure Humidity
    00:00 +5°C° 0 mm 3 mps 722 mmHg 85%
    01:00 +6°C° 0 mm 4 mps 722 mmHg 85%
    02:00 +6°C° 0 mm 4 mps 722 mmHg 85%
    03:00 +6°C° 0 mm 4 mps 722 mmHg 86%
    04:00 +6°C° 0.2 mm 5 mps 722 mmHg 85%
    05:00 +6°C° 0.2 mm 5 mps 722 mmHg 85%
    06:00 +6°C° 0.2 mm 5 mps 721 mmHg 84%
    07:00 +6°C° 0.1 mm 5 mps 722 mmHg 83%
    08:00 +6°C° 0.1 mm 5 mps 722 mmHg 81%
    09:00 +6°C° 0.1 mm 5 mps 722 mmHg 79%
    10:00 +7°C° 0.3 mm 6 mps 721 mmHg 78%
    11:00 +7°C° 0.3 mm 6 mps 721 mmHg 76%
    12:00 +6°C° 0.3 mm 7 mps 721 mmHg 74%
    13:00 +8°C° 0.3 mm 7 mps 720 mmHg 72%
    14:00 +8°C° 0.3 mm 7 mps 720 mmHg 69%
    15:00 +8°C° 0.3 mm 7 mps 720 mmHg 67%
    16:00 +7°C° 0.2 mm 6 mps 720 mmHg 71%
    17:00 +7°C° 0.2 mm 6 mps 720 mmHg 75%
    18:00 +6°C° 0.2 mm 5 mps 720 mmHg 78%
    19:00 +6°C° 0.2 mm 4 mps 720 mmHg 80%
    20:00 +6°C° 0.2 mm 2 mps 720 mmHg 82%
    21:00 +7°C° 0.2 mm 1 mps 720 mmHg 84%
    22:00 +5°C° 0.2 mm 3 mps 721 mmHg 82%
    23:00 +5°C° 0.2 mm 5 mps 721 mmHg 81%
    Show more